Погода в Гельзенкирхене

Германия     51°30′27″N   7°05′40″E
темп.,
°C
ветер,
м/с
пор.,
м/с
влажн.,
%
обл.,
%
осадки,
мм/ч
давл.,
гПа
погр.,
м
11 мая, вт
вт1123:00+14ююз118298 0.5 100813
02:00+13з1188100 1.3 100933
05:00+13ююз1194100 1.9 100922
08:00+12юз1195100 3.2 100927
11:00+13св1395100 0.3 1009172
14:00+13сз1393100 0.3 1009200
17:00+12сз1294100 0.1 1009149
20:00+12сз1495100 0.1 1010229
12 мая, ср
ср1223:00+11зсз1195100 0.0 101045
02:00+11з1396100 0.1 1010117
05:00+10з2498100 0.2 1011137
08:00+10зсз3798100 0.8 1012428
11:00+11з2591100 0.4 1012545
14:00+16сз3356100 0.9 10121628
17:00+15сз3358100 0.1 10121095
20:00+14с2469100 0.2 1012492
13 мая, чт
чт1323:00+10всв239273 0.1 101287
02:00+9всв2395100 0.1 101188
05:00+9всв1297100 0.0 101061
08:00+11всв2389100 0.0 1010251
11:00+14ссв236599 0.2 1009879
14:00+16св3349100 0.3 10081509
17:00+15св3356100 0.0 10071200
20:00+13всв3472100 0.2 1007586
14 мая, пт
пт1423:00+10в3683100 0.0 1008334
02:00+9всв2480100 0.0 1008173
05:00+9всв128099 0.0 1008105
08:00+11св1273100 0.0 1008336
11:00+12с1164100 0.0 1009815
14:00+13з116899 0.1 1009784
17:00+12с1175100 0.2 1010359
20:00+12всв117747 0.3 1010128
15 мая, сб
сб1523:00+9ссв11875 0.0 101110
02:00+8з00915 0.0 101210
05:00+7зсз01955 0.0 101310
08:00+10зсз11823 0.0 1014234
11:00+15з236057 0.0 10141088
14:00+18зюз344880 0.1 10131853
17:00+17сз234986 0.1 10121449
20:00+15ссв127573 0.6 101265